Content
SEND FEEDBACK

Daily
Averages
Monthly
Summary
United States of America

ENTERPRISE, ALABAMA


Home > North America > United States > Alabama
Elevation: 298 feet     Latitude: 31 17N     Longitude: 085 43W

WEATHER
 
SELECT A DAY
Number of Records: 67,882;   Date Range: 2/10/98 - 12/18/14
 
SHARE

PRINT THIS DATA

[ ← Previous Day ]
WEATHER ALMANAC - JUNE 18, 2014
[ Next Day → ]
[ °C ]   °F
Weather ElementAverageHighLow
Temperature82.4 °F93 °F (2:53 pm)69.1 °F (5:53 am)
Dewpoint68.2 °F72 °F (9:53 pm)62.1 °F (2:53 pm)
Humidity65.9 %97 % (3:53 am)36 % (2:53 pm)
Barometer30.08 in30.13 in (8:53 am)30.03 in (5:53 pm)
Wind Speed2.3 mph8.1 mph (10:53 am)
Weather ElementAverage
Visibility9 mi
Wind DirectionNE (48.6 °)

Weather ElementTotal
Precipitation---
Cooling Degree Days16.1 (Base 65)
Growing Degree Days31.1 (Base 50)
Averaged from 22 records on June 18, 2014
WEATHER CONDITIONS BREAKOUT
WIND DIRECTION BREAKOUT
WEATHER BY HOUR - JUNE 18, 2014
[ °C ]   °F
Local TimeTemperatureDewpointHumidityBarometerVisibilityWind DirectionWind SpeedGust SpeedPrecipitationEventsConditions
1:53 AM71.1 °F69.1 °F93 %30.08 in8.0 miCalmClear
2:53 AM71.1 °F69.1 °F93 %30.07 in5.0 miCalmClear
3:53 AM70.0 °F69.1 °F97 %30.07 in7.0 miCalmClear
5:53 AM69.1 °F66.9 °F93 %30.09 in4.0 miCalmClear
6:53 AM72.0 °F69.1 °F91 %30.10 in5.0 miCalmClear
7:53 AM78.1 °F71.1 °F79 %30.12 in10.0 miCalmClear
8:53 AM82.0 °F71.1 °F69 %30.13 in10.0 miCalmClear
9:53 AM84.9 °F70.0 °F61 %30.12 in10.0 miSSW (210°)5.8 mphClear
10:53 AM88.0 °F68.0 °F51 %30.12 in10.0 miSSW (210°)8.1 mphClear
11:53 AM89.1 °F66.0 °F46 %30.12 in10.0 miENE (70°)3.5 mphClear
12:53 PM91.0 °F66.0 °F44 %30.11 in10.0 miVariable3.5 mphPartly Cloudy
1:53 PM91.0 °F64.9 °F42 %30.09 in10.0 miVariable5.8 mphMostly Cloudy
2:53 PM93.0 °F62.1 °F36 %30.06 in10.0 miVariable5.8 mphClear
3:53 PM93.0 °F63.0 °F37 %30.04 in10.0 miVariable3.5 mphPartly Cloudy
4:53 PM93.0 °F64.0 °F38 %30.04 in10.0 miCalmPartly Cloudy
5:53 PM93.0 °F64.0 °F38 %30.03 in10.0 miCalmClear
6:53 PM86.0 °F69.1 °F57 %30.03 in10.0 miCalmClear
7:53 PM81.0 °F71.1 °F72 %30.06 in10.0 miSouth (180°)6.9 mphPartly Cloudy
8:53 PM82.0 °F71.1 °F69 %30.08 in10.0 miSouth (190°)4.6 mphScattered Clouds
9:53 PM80.1 °F72.0 °F76 %30.09 in10.0 miCalmClear
10:53 PM78.1 °F72.0 °F81 %30.09 in10.0 miSSW (210°)3.5 mphPartly Cloudy
11:53 PM75.9 °F72.0 °F87 %30.09 in10.0 miCalmClear
Hourly data recorded from KLOR, located miles away from Enterprise, Alabama







STORIES FROM OUR PARTNERS